Flag for Germany Weather past 2 weeks in Vreden, North Rhine-Westphalia, Germany

Now
52 °F

Passing clouds.


Feels Like: 51 °F
Forecast: 47 / 62 °F
Wind: 5 mph from South

Location: Twenthe

Current Time: Aug 22, 2014 at 6:13:55 AM

Latest Report: Aug 22, 2014 at 5:00 AM


Visibility: 19 mi

Pressure: 29.88 "Hg

Humidity: 85%

Dew point: 47 °F

Location of VredenLocation

Historic Weather in Vreden — Graph

°F

Vreden temperature yesterday

Maximum temperature yesterday: 64 °F (at 3:00 PM)
Minimum temperature yesterday: 46 °F (at 6:00 AM)
Average temperature yesterday: 54 °F

Past Weeks' High & Low Weather Summary

 TemperatureHumidityPressure
High78 °F (Aug 8, 4:00 PM)100% (Aug 8, 12:00 AM)30.07 "Hg (Aug 8, 12:00 AM)
Low46 °F (Aug 21, 6:00 AM)47% (Aug 11, 3:00 PM)29.54 "Hg (Aug 10, 7:00 PM)
Average60 °F82%29.84 "Hg
* Reported Aug 7 4:00 AM — Aug 22 4:00 AM, Vreden, Weather by CustomWeather, © 2014

Note: Actual official high and low records may vary slightly from our data, if they occured in-between our weather recording intervals... More about our weather records

Advertising

Vreden weather history for previous 24 hours

 ConditionsComfort  
Time TempWeatherWind HumidityBarometerVisibility
4:00 AM
Aug 22
53 °FPassing clouds.5 mph86%29.89 "Hg16 mi
3:00 AM53 °FPassing clouds.5 mph86%29.90 "Hg15 mi
2:00 AM53 °FPassing clouds.3 mph88%29.91 "Hg16 mi
1:00 AM54 °FPassing clouds.3 mph85%29.93 "Hg18 mi
12:00 AM57 °FOvercast.3 mph78%29.93 "Hg19 mi
11:00 PM
Aug 21
58 °FOvercast.5 mph75%29.94 "Hg19 mi
10:00 PM55 °FOvercast.1 mph87%29.94 "Hg16 mi
9:00 PM56 °FOvercast.2 mph81%29.94 "Hg6 mi
8:00 PM58 °FScattered clouds.3 mph71%29.94 "Hg22 mi
7:00 PM58 °FOvercast.No wind82%29.95 "Hg22 mi
6:00 PM61 °FOvercast.5 mph63%29.97 "Hg19 mi
5:00 PM61 °FOvercast.5 mph64%29.97 "Hg19 mi
4:00 PM62 °FOvercast.6 mph60%29.97 "Hg22 mi
3:00 PM64 °FPassing clouds.7 mph60%29.99 "Hg17 mi
2:00 PM63 °FScattered clouds.6 mph62%30.00 "Hg19 mi
1:00 PM62 °FScattered clouds.5 mph65%30.01 "Hg16 mi
12:00 PM59 °FScattered clouds.5 mph73%30.01 "Hg9 mi
11:00 AM55 °FPassing clouds.3 mph83%30.02 "Hg6 mi
10:00 AM52 °FFog.3 mph92%30.02 "Hg4 mi
9:00 AM49 °FFog.3 mph98%30.02 "Hg1 mi
8:00 AM48 °FPartly sunny.2 mph99%30.01 "Hg1 mi
7:00 AM47 °FPartly sunny.2 mph100%30.00 "Hg1 mi
6:00 AM46 °FPassing clouds.2 mph99%30.00 "Hg0 mi
Weather by CustomWeather, © 2014

See weather overviewHow to use our weather pages